Challenge des Corridas Hivernales

Saint-Nicolas Est Un Joggeur ! à Rulles (5.00 km)

vendredi 30 novembre 2018

Vous pouvez trouver Le classement original sur : http://ultratiming.be  
CHALLENGE DES CORRIDAS HIVERNALES
SAINT-NICOLAS EST UN JOGGEUR ! - RULLES
DISTANCE : 4.98 km
vendredi 30 novembre 2018
 
Place dos NOM Catégorie Pl/cat temps temps/km Vitesse
01:00:00              
1 1936 VERDIN GILLES SEH 1 0:17:04 03:26 17.50
2 1198 STASSER THOMAS SEH 2 0:17:12 03:27 17.36
3 1819 KAUTEN CHRISTOPHE SEH 3 0:17:23 03:30 17.18
4 1844 WINKIN GUILLAUME SEH 4 0:17:27 03:30 17.12
5 1714 STEFFEN JOHN SEH 5 0:17:28 03:31 17.10
6 928 ANTOINE YANNICK V1H 1 0:17:31 03:31 17.05
7 1839 VAN LERBERGHE MARTIN SEH 6 0:17:33 03:32 17.02
8 1163 TOUSSAINT JUSTIN JEUH 1 0:18:02 03:37 16.56
9 1209 LEBLICQ ROMARIC SEH 7 0:18:02 03:37 16.56
10 1818 LINEL JEROME SEH 8 0:18:06 03:38 16.50
11 1711 WINKIN PIERRE-YVES SEH 9 0:18:11 03:39 16.43
12 2229 LOUPPE QUENTIN V1H 2 0:18:12 03:39 16.41
13 2227 DEBOUCHEZ JEAN-CHRISTOPHE V1H 3 0:18:15 03:40 16.37
14 1529 LAURENT AXEL SEH 10 0:18:17 03:40 16.34
15 93 CUVELIER NELL JEUH 2 0:18:33 03:44 16.10
16 1791 PIERRARD REMY SEH 11 0:18:47 03:46 15.90
17 131 DEWEZ MAXIME JEUH 3 0:18:48 03:47 15.89
18 1081 RAMSPACHER JULIEN V1H 4 0:18:49 03:47 15.87
19 1964 KIMUS DAVID XXX   0:18:53 03:48 15.82
20 1867 DONNEAU MAXIME SEH 12 0:18:53 03:48 15.82
21 1153 DE CONINCK TIMOTHEE JEUH 4 0:18:56 03:48 15.77
22 1023 DELCHAMBRE REMY SEH 13 0:18:57 03:48 15.76
23 1251 PERRAD CHRISTOPHE SEH 14 0:19:01 03:49 15.71
24 2067 GEORGEMANS THOMAS JEUH 5 0:19:01 03:49 15.71
25 99 KERGER SÉBASTIEN V1H 5 0:19:03 03:50 15.68
26 1885 LAVALLE THIBAULT SEH 15 0:19:08 03:51 15.61
27 1887 HISLAIRE ARNAUD SEH 16 0:19:08 03:51 15.61
28 1277 PICARD AMAEL SEH 17 0:19:08 03:51 15.61
29 1659 THIRY LENAIC SEH 18 0:19:29 03:55 15.33
30 903 ROSIER BENOIT V2H 1 0:19:36 03:56 15.24
31 56 GILLET DAVID V2H 2 0:19:36 03:56 15.24
32 1160 GUERIN GUILLAUME V1H 6 0:19:37 03:56 15.23
33 1118 CARNEVALI TRISTAN SEH 19 0:19:38 03:57 15.21
34 1299 WANLIN GREGORY SEH 20 0:19:39 03:57 15.20
35 1836 CARA BORIS SEH 21 0:19:49 03:59 15.07
36 1918 BRAUX BASTIEN SEH 22 0:19:58 04:01 14.96
37 1854 THIRY MATHYS JEUH 6 0:19:58 04:01 14.96
38 905 DEPIENNE JULIEN SEH 23 0:20:00 04:01 14.93
39 1944 DELAISSE ROMAIN SEH 24 0:20:05 04:02 14.87
40 62 DOYEN BENJAMIN SEH 25 0:20:05 04:02 14.87
41 2074 GERARD FLORIAN SEH 26 0:20:06 04:02 14.86
42 2233 GODFROID THOMAS SEH 27 0:20:09 04:03 14.82
43 92 CUVELIER FABIEN V1H 7 0:20:10 04:03 14.81
44 2224 LAMBERT THOMAS SEH 28 0:20:11 04:03 14.80
45 1685 LESAING STEPHANE V2H 3 0:20:13 04:04 14.77
46 1227 LAGASSE OLIVIER V1H 8 0:20:17 04:04 14.72
47 1024 GOSSE MICHAEL SEH 29 0:20:20 04:05 14.69
48 1829 REMY JOACHIM JEUH 7 0:20:22 04:05 14.66
49 1243 WAUTHIER STEVE SEH 30 0:20:26 04:06 14.62
50 1897 RIJS CAROLINE SEF 1 0:20:29 04:07 14.58
51 2238 BRAUX MATHIEU SEH 31 0:20:31 04:07 14.56
52 1923 BUCHET BÉRENGER SEH 32 0:20:34 04:08 14.52
53 1930 ROLAND SACHA JEUH 8 0:20:39 04:09 14.46
54 1627 COLLET AMAURY SEH 33 0:20:43 04:10 14.42
55 1933 ROLAND SIMON JEUH 9 0:20:46 04:10 14.38
56 1901 GORGEMANS LAURENT V1H 9 0:20:51 04:11 14.32
57 1563 HOTTIAS HADRIEN SEH 34 0:20:52 04:12 14.31
58 1098 DREZEN MAXIME SEH 35 0:20:54 04:12 14.29
59 1861 STIERNON MATHEO JEUH 10 0:20:57 04:13 14.26
60 95 GODFRIND CHARLES JEUH 11 0:21:02 04:14 14.20
61 1214 MAYOT CYRIL V1H 10 0:21:03 04:14 14.19
62 1860 MAZI REMI SEH 36 0:21:08 04:15 14.13
63 1937 BOURGUIGNON ARNAUD V1H 11 0:21:09 04:15 14.12
64 1121 GEORGE MATHIAS SEH 37 0:21:16 04:16 14.04
65 1749 ARNOULD LORIS JEUH 12 0:21:19 04:17 14.01
66 2031 COPINNE FRANCK SEH 38 0:21:19 04:17 14.01
67 1866 ROBIN SARAH SEF 2 0:21:19 04:17 14.01
68 1265 MEUNIER BASILE V1H 12 0:21:19 04:17 14.01
69 1609 CAILTEUX GUILLAUME SEH 39 0:21:20 04:17 14.00
70 91 RATY ALINE V1F 1 0:21:25 04:18 13.95
71 1552 BOURGUIGNON LAURENT V2H 4 0:21:28 04:19 13.91
72 1883 ARNOULD ZEPHIRIN JEUH 13 0:21:28 04:19 13.91
73 1757 XXX XXX   0:21:33 04:20 13.86
74 1193 LACOUQUE JOHANN V1H 13 0:21:38 04:21 13.81
75 1747 LENEL SEBASTIEN V1H 14 0:21:41 04:21 13.77
76 1946 COLLARD CYPRIEN SEH 40 0:21:42 04:22 13.76
77 1917 WATELET CHRISTOPHE V1H 15 0:21:43 04:22 13.75
78 1945 LUCAS CORENTIN JEUH 14 0:21:44 04:22 13.74
79 1928 STAS THIERRY V2H 5 0:21:46 04:22 13.72
80 1713 OGER XAVIER SEH 41 0:21:46 04:22 13.72
81 1292 MARCHAL THOMAS SEH 42 0:21:50 04:23 13.68
82 1864 JACQUES THEO SEH 43 0:21:52 04:24 13.66
83 1947 ZUNE PATRICE V2H 6 0:21:52 04:24 13.66
84 1912 PIERSON ARTHUR JEUH 15 0:21:55 04:24 13.63
85 1065 VIEUXTEMPS MAXIME SEH 44 0:21:59 04:25 13.59
86 1026 GILLARD STANY V1H 16 0:21:59 04:25 13.59
87 1232 ROLLES KEVIN SEH 45 0:22:00 04:25 13.58
88 1938 FILON TAMARI JEUH 16 0:22:04 04:26 13.53
89 1197 EHMANN WILMA SEF 3 0:22:05 04:26 13.52
90 1932 ROLAND ABEL JEUH 17 0:22:05 04:26 13.52
91 1687 DEVOLF THEODORE JEUH 18 0:22:09 04:27 13.48
92 1083 LOBET DENIS SEH 46 0:22:10 04:27 13.47
93 930 VINCENT KELYG SEH 47 0:22:13 04:28 13.44
94 102 FRANÇOIS LESLIE SEH 48 0:22:15 04:28 13.42
95 1217 LAUMONT MORGAN SEH 49 0:22:19 04:29 13.38
96 1608 CAILTEUX ELISABETH SEF 4 0:22:19 04:29 13.38
97 1888 HISLAIRE YVES V2H 7 0:22:23 04:30 13.34
98 1051 LIEGEOIS CLARA JEUF 1 0:22:25 04:30 13.32
99 1678 DE CONINCK STEPHANIE V1F 2 0:22:30 04:31 13.27
100 1909 MINET NOËL V1H 17 0:22:31 04:31 13.26
101 1845 ROBERT AMAURY SEH 50 0:22:33 04:32 13.24
102 1790 CAILTEUX EMILIE SEF 5 0:22:37 04:33 13.21
103 1688 DELESPESSE FABIAN V1H 18 0:22:40 04:33 13.18
104 1689 MEUNIER BERNARD V1H 19 0:22:43 04:34 13.15
105 1039 PLIER CHRISTOPHE V2H 8 0:22:43 04:34 13.15
106 1954 VEDRINES ARNAUD SEH 51 0:22:44 04:34 13.14
107 1266 BRAU AMELIE SEF 6 0:22:49 04:35 13.09
108 1961 ADAM ANTOINE SEH 52 0:22:53 04:36 13.05
109 1907 GOFFIN ANNELEEN SEF 7 0:22:54 04:36 13.04
110 1833 MINE VICTOR JEUH 19 0:22:59 04:37 12.99
111 1745 PLAINCHAMP GWENAELLE V1F 3 0:23:00 04:37 12.99
112 1681 BARTHAUX BENOIT V1H 20 0:23:01 04:37 12.98
113 1180 RATY AMELIE JEUF 2 0:23:04 04:38 12.95
114 1922 SCHWALL CASSIAN JEUH 20 0:23:10 04:39 12.89
115 1231 GODENIR CHRISTIAN V2H 9 0:23:15 04:40 12.85
116 61 THIRY VIVIEN V1H 21 0:23:20 04:41 12.80
117 1212 PAQUET DAVID V2H 10 0:23:22 04:42 12.78
118 1915 THÉRER ROMAIN V1H 22 0:23:30 04:43 12.71
119 1924 BROZAK PIERRE SEH 53 0:23:35 04:44 12.66
120 1123 LECLER FLORENT V1H 23 0:23:38 04:45 12.64
121 935 DENAYER LISA SEF 8 0:23:39 04:45 12.63
122 1086 ALLARD BASTIEN SEH 54 0:23:44 04:46 12.58
123 1879 NAVEAUX ANTHONY SEH 55 0:23:44 04:46 12.58
124 1908 GROSS JACKY V2H 11 0:23:47 04:47 12.56
125 1172 KOBS QUENTIN JEUH 21 0:23:49 04:47 12.54
126 1628 BELCHE JEREMY SEH 56 0:23:51 04:47 12.52
127 1935 ROLAND ELIE JEUH 22 0:23:52 04:48 12.51
128 63 SCAILLET SEVERINE V1F 4 0:23:52 04:48 12.51
129 1017 BALZA DOMINIQUE V3H 1 0:23:55 04:48 12.49
130 1036 STEIOFF STÉPHANE SEH 57 0:23:57 04:49 12.47
131 1290 SIZAIRE AURELIEN SEH 58 0:23:57 04:49 12.47
132 1058 RENARD JEAN-PHILIPPE V2H 12 0:24:00 04:49 12.44
133 1664 CARTRY MAUD SEF 9 0:24:08 04:51 12.38
134 1677 FRANCOIS MARILYN V1F 5 0:24:09 04:51 12.37
135 1795 COLLIGNON CEDRIC JEUH 23 0:24:09 04:51 12.37
136 1794 COLLIGNON LOIC SEH 59 0:24:12 04:52 12.34
137 936 DENAYER CLOTHILDE SEF 10 0:24:12 04:52 12.34
138 1124 ROTA SYLVAIN SEH 60 0:24:20 04:53 12.27
139 2255 ADAM XAVIER SEH 61 0:24:22 04:54 12.26
140 1221 THERER ELOISE SEF 11 0:24:23 04:54 12.25
141 2071 OLIVIER SEVERINE SEF 12 0:24:23 04:54 12.25
142 1830 REMY ESTEBAN SEH 62 0:24:31 04:56 12.18
143 1267 BRIEL PHILIPPE V1H 24 0:24:31 04:56 12.18
144 2008 JACOB DIDIER V2H 13 0:24:32 04:56 12.17
145 1547 COPPIN CLEMENT SEH 63 0:24:34 04:56 12.16
146 1033 DETHISE LOÏC SEH 64 0:24:38 04:57 12.12
147 1684 CONSTANT PATRICK V3H 2 0:24:40 04:57 12.11
148 1306 LARZILLIERE DAMIEN SEH 65 0:24:45 04:58 12.07
149 908 TINANT CHLOE SEF 13 0:24:46 04:59 12.06
150 1824 HENRY MARCEL V2H 14 0:24:48 04:59 12.04
151 1823 DROUET STEPHANIE V2F 1 0:24:49 04:59 12.03
152 1902 COPPIN NICOLAS XXX   0:24:57 05:01 11.97
153 121 LOUIS ARNAUD SEH 66 0:25:01 05:02 11.94
154 1872 MARECHAL QUENTIN JEUH 24 0:25:02 05:02 11.93
155 1834 RADENNE MAEL JEUH 25 0:25:05 05:02 11.91
156 1767 WAGNER GILLES V1F 6 0:25:10 05:03 11.87
157 1202 DEVILLET SEBASTIEN SEH 67 0:25:10 05:03 11.87
158 1905 COUQUELET ISABELLE V1F 7 0:25:11 05:04 11.86
159 1643 MORIS KEVIN SEH 68 0:25:14 05:04 11.84
160 78 DASNOY FREDDY V3H 3 0:25:16 05:05 11.82
161 1041 DELMEE EVE JEUF 3 0:25:17 05:05 11.81
162 1942 LOUIS SEBASTIEN SEH 69 0:25:18 05:05 11.81
163 901 VAN DE WIELE BRUNO V1H 25 0:25:20 05:05 11.79
164 1038 PLIER CHIARA JEUF 4 0:25:21 05:06 11.78
165 2092 KHELIFA MYRIAM SEF 14 0:25:22 05:06 11.77
166 1004 LAVAL SALINAS ANDREA JEUF 5 0:25:24 05:06 11.76
167 1524 HESSE SACHA JEUH 26 0:25:26 05:07 11.74
168 1959 HENRY EDWIN SEH 70 0:25:36 05:09 11.67
169 138 CASPAR MANON JEUF 6 0:25:41 05:10 11.63
170 1893 COLLIGNON DAVID SEH 71 0:25:42 05:10 11.62
171 1774 ROBA WENDY SEF 15 0:25:43 05:10 11.61
172 1092 TOUILLAUX DOMINIQUE V2H 15 0:25:44 05:10 11.61
173 133 WEBER TAMARA V1F 8 0:25:47 05:11 11.58
174 119 ENGLEBERT SIMON SEH 72 0:25:47 05:11 11.58
175 1743 MONHONVAL ROMANE JEUF 7 0:25:49 05:11 11.57
176 1082 RAULET LAURIANNE SEF 16 0:25:58 05:13 11.50
177 96 GODFRIND VALENTINE JEUF 8 0:25:59 05:13 11.49
178 934 DENAYER RENELLE SEF 17 0:26:00 05:13 11.49
179 1168 WIDART JEAN V3H 4 0:26:00 05:13 11.49
180 117 ROMAN CHRISTABEL V2F 2 0:26:01 05:14 11.48
181 1957 MINET GUILLAUME SEH 73 0:26:06 05:15 11.44
182 1593 FELTESSE RENAUD V1H 26 0:26:06 05:15 11.44
183 1525 MOHNEN CELINE V2F 3 0:26:07 05:15 11.44
184 1876 DESSOY LAURINE JEUF 9 0:26:09 05:15 11.42
185 1852 WATHELET MAELIG JEUH 27 0:26:18 05:17 11.36
186 1831 GERARD FRANCOISE V1F 9 0:26:22 05:18 11.33
187 1931 ROLAND ZOÉ SEF 18 0:26:22 05:18 11.33
188 1769 REUTER VALÉRIE V1F 10 0:26:25 05:18 11.31
189 1940 PIERRET JOCELYN SEF 19 0:26:29 05:19 11.28
190 1913 PIERSON CHRISTOPHE V1H 27 0:26:30 05:19 11.27
191 1601 BARTHELEMY MANUEL V1H 28 0:26:31 05:20 11.26
192 1953 TOUSSAINT ANTOINE SEH 74 0:26:32 05:20 11.26
193 1958 MINET PAULINE SEF 20 0:26:33 05:20 11.25
194 1956 LEMAIRE ALICE SEF 21 0:26:34 05:20 11.24
195 74 LIBOIS RAPHAËL V2H 16 0:26:34 05:20 11.24
196 1540 TILMONT LOUISE JEUF 10 0:26:34 05:20 11.24
197 1539 TILMONT LAURENT V2H 17 0:26:35 05:20 11.24
198 1895 GALLAIRE LOLA JEUF 11 0:26:38 05:21 11.21
199 1698 BORBOUSE REMY SEH 75 0:26:39 05:21 11.21
200 1177 FENA VICTORIA SEF 22 0:26:45 05:22 11.17
201 1853 WATHELET DYLAN JEUH 28 0:26:48 05:23 11.14
202 128 FINEUSE EMILE V3H 5 0:26:56 05:25 11.09
203 1838 DELBROUCK OLIVIER V1H 29 0:26:59 05:25 11.07
204 1087 HALLET NADINE V2F 4 0:27:01 05:26 11.05
205 1841 GUIOT-DARDAR STEPHANIE V1F 11 0:27:08 05:27 11.01
206 1817 RATHS CHLOE JEUF 12 0:27:10 05:27 10.99
207 1896 SALMON TOM SEH 76 0:27:12 05:28 10.98
208 1971 BRAUX VALENTINE SEF 23 0:27:15 05:28 10.96
209 1654 BALON CHRISTOPHE SEH 77 0:27:15 05:28 10.96
210 2046 BLAISE LAURENCE V1F 12 0:27:16 05:29 10.95
211 1813 THÉRER AYLAN JEUH 29 0:27:19 05:29 10.93
212 1969 LEBOUTTE VINCENT V2H 18 0:27:21 05:30 10.92
213 1939 EILON HADAS V1F 13 0:27:22 05:30 10.91
214 1970 COURTY COLLEEN SEF 24 0:27:23 05:30 10.91
215 2230 SOBRAIVILLE KATIA SEF 25 0:27:28 05:31 10.87
216 1013 WIRARD ANNE V1F 14 0:27:28 05:31 10.87
217 1096 CONTOR PATRICK V2H 19 0:27:29 05:31 10.87
218 1903 BIGONVILLE GERALDINE XXX   0:27:31 05:32 10.85
219 1962 CASEL MATHILDE SEF 26 0:27:32 05:32 10.85
220 1054 MAYOT LOUIS JEUH 30 0:27:33 05:32 10.84
221 1167 COUVERT JACQUES V3H 6 0:27:34 05:32 10.83
222 904 BRAUX FLORINE SEF 27 0:27:35 05:32 10.83
223 1162 MANDY SEBASTIEN V1H 30 0:27:38 05:33 10.81
224 1139 LECLEF PIERROT XXX   0:27:43 05:34 10.78
225 1208 WILKOWSKI LAURA SEF 28 0:27:45 05:34 10.76
226 1207 JACOB JEAN-JULIEN SEH 78 0:27:48 05:35 10.74
227 1045 MEINGUET MANON JEUF 13 0:27:49 05:35 10.74
228 1061 COOS CHRISTIAN V3H 7 0:27:55 05:36 10.70
229 94 PAQUOT SANDRINE V1F 15 0:27:56 05:37 10.69
230 1201 DEVILLET SERGE V3H 8 0:27:57 05:37 10.69
231 1848 ROBLAIN TANGUY V1H 31 0:27:58 05:37 10.68
232 1832 PONCELET THIBAULT JEUH 31 0:27:59 05:37 10.67
233 1530 COLLIGNON LORINE SEF 29 0:28:00 05:37 10.67
234 1025 LESENFANTS FRANCIS V3H 9 0:28:03 05:38 10.65
235 1268 BRIEL VIOLETTE JEUF 14 0:28:05 05:39 10.64
236 1858 CRONIN DERMOT V2H 20 0:28:11 05:40 10.60
237 1881 HAAN JOELLE V2F 5 0:28:15 05:41 10.57
238 1851 DELFORGE CAROLE SEF 30 0:28:17 05:41 10.56
239 1865 SCHILTZ BASTIEN SEH 79 0:28:17 05:41 10.56
240 1827 VINCKE JEAN-CLAUDE V3H 10 0:28:21 05:42 10.53
241 1906 DELFORGE TIFFANY SEF 31 0:28:22 05:42 10.53
242 1001 DAUTUN LOU-ANNE JEUF 15 0:28:23 05:42 10.52
243 1249 MARÉCHAL MARC V2H 21 0:28:24 05:42 10.52
244 1240 HABSCH LAURENCE V1F 16 0:28:31 05:44 10.47
245 2027 PROTIN LYSIANE SEF 32 0:28:33 05:44 10.46
246 1241 DEPEAUW OLIVIER V1H 32 0:28:33 05:44 10.46
247 1890 CAMBIER NATHAN JEUH 32 0:28:35 05:45 10.45
248 143 GASPARD LAURENCE V1F 17 0:28:36 05:45 10.44
249 1090 TOUILLAUX SASHA JEUF 16 0:28:36 05:45 10.44
250 1960 LOUIS YVELINE SEF 33 0:28:39 05:45 10.42
251 1850 THIRY JADE JEUF 17 0:28:40 05:46 10.42
252 1891 CAMBIER PASCAL V1H 33 0:28:42 05:46 10.41
253 1820 OUMDJEDE LEXANE JEUF 18 0:28:47 05:47 10.38
254 1863 STIERNON CELIA JEUF 19 0:28:47 05:47 10.38
255 1889 OGER VERONIQUE V2F 6 0:28:51 05:48 10.35
256 1815 RENAULD GERALDINE V1F 18 0:28:52 05:48 10.35
257 1009 DEBATY ALAIN V3H 11 0:28:53 05:48 10.34
258 137 HARVENGT LISE-MARIE V1F 19 0:28:53 05:48 10.34
259 97 CHRISTINA JEROUVILLE V2F 7 0:28:54 05:48 10.33
260 1975 GOFFLOT KEVIN SEH 80 0:28:54 05:48 10.33
261 1715 CORNET SOPHIE V2F 8 0:28:56 05:49 10.32
262 1963 LELEU MAXENCE SEH 81 0:28:57 05:49 10.32
263 1948 HAAN SANDRINA V2F 9 0:28:58 05:49 10.31
264 1773 XXX XXX   0:29:00 05:50 10.30
265 1892 RAMPEL AUDREY SEF 34 0:29:00 05:50 10.30
266 1966 QUOILIN JORDAN SEH 82 0:29:01 05:50 10.29
267 900 BURNOTTE PASCALE V2F 10 0:29:02 05:50 10.29
268 1825 CUVELIER NOE JEUH 33 0:29:03 05:50 10.28
269 1874 STOCK NATHALIE V1F 20 0:29:06 05:51 10.26
270 1873 MARÉCHAL EMY JEUF 20 0:29:07 05:51 10.26
271 1835 KIHL GILLES V1H 34 0:29:09 05:51 10.25
272 1919 GUELFF JEAN-MARC V1H 35 0:29:09 05:51 10.25
273 2256 PERIN CELINE SEF 35 0:29:11 05:52 10.23
274 1849 THIRY FRANCK V1H 36 0:29:13 05:52 10.22
275 1174 LUGEN NOELLA V2F 11 0:29:16 05:53 10.21
276 1951 PETREMENT CAMILLE SEH 83 0:29:17 05:53 10.20
277 1973 PONCÉ MÉLANIE SEF 36 0:29:23 05:54 10.16
278 1972 PONCE DELPHINE SEF 37 0:29:25 05:55 10.15
279 2004 WIENDERS AUGUSTINE SEF 38 0:29:26 05:55 10.15
280 1107 BOURLARD EMILIE SEF 39 0:29:32 05:56 10.11
281 112 LAMBERT DENIS SEH 84 0:29:34 05:56 10.10
282 1862 ZORZI LAURENT V1H 37 0:29:35 05:57 10.10
283 80 DASNOY VANESSA SEF 40 0:29:37 05:57 10.08
284 1230 GODENIR EVA JEUF 21 0:29:41 05:58 10.06
285 1108 RIE PAULINE SEF 41 0:29:44 05:58 10.04
286 1012 BERGMANS FRANCOISE V1F 21 0:29:45 05:59 10.04
287 1968 NEUBERG BASTIEN SEH 85 0:29:46 05:59 10.03
288 1319 AYMAIN NOA JEUH 34 0:29:53 06:00 9.99
289 1952 RICHARD CHARLOTTE SEF 42 0:29:54 06:00 9.99
290 65 WILLETTE JEAN-MICHEL V2H 22 0:29:55 06:01 9.98
291 1053 MAYOT STÉPHANIE V1F 22 0:29:57 06:01 9.97
292 1179 GUILLAUME VANESSA V1F 23 0:30:00 06:02 9.96
293 2010 LIEGEOIS DIMITRI V1H 38 0:30:00 06:02 9.96
294 1929 MATHIEU DANIEL V2H 23 0:30:03 06:02 9.94
295 1686 HUBERT VIOLETTE SEF 43 0:30:05 06:03 9.93
296 1934 COUPPE PHILIPPE V3H 12 0:30:07 06:03 9.92
297 2037 BLAISE CATHERINE V1F 24 0:30:11 06:04 9.90
298 2014 JEHAY CHRISTEL V2F 12 0:30:13 06:04 9.88
299 1084 WILLEMET CHLOE SEF 44 0:30:17 06:05 9.86
300 1165 1165 N.N. XXX   0:30:20 06:06 9.85
301 88 MATHELIN ALISON SEF 45 0:30:23 06:06 9.83
302 1154 ARNOULD ISABELLE V1F 25 0:30:24 06:06 9.82
303 1871 SAUBOIN CATHERINE V1F 26 0:30:24 06:06 9.82
304 1146 FRECON MARTINE V2F 13 0:30:25 06:07 9.82
305 1128 ROCHET JOHANNIE SEF 46 0:30:26 06:07 9.81
306 2047 WOUTERS AMANDINE SEF 47 0:30:28 06:07 9.80
307 89 SCHROEDER SOPHIE V1F 27 0:30:30 06:08 9.79
308 1307 LARZILLIERE AURORE V1F 28 0:30:31 06:08 9.79
309 1868 ZLOTOROWIEZ STEPHANE V1H 39 0:30:32 06:08 9.78
310 1870 ZLOT AURELIEN JEUH 35 0:30:32 06:08 9.78
311 1129 DEOM SOPHIE V1F 29 0:30:33 06:08 9.78
312 1911 OLIVIER AMÉLIE SEF 48 0:30:35 06:09 9.77
313 1916 VAN HEES CHARLES SEH 86 0:30:35 06:09 9.77
314 1899 NOEL EMYE JEUF 22 0:30:36 06:09 9.76
315 1921 ROSSIGNON JULIE SEF 49 0:30:37 06:09 9.76
316 1877 REMY KEVIN V1H 40 0:30:38 06:09 9.75
317 1281 GOFFIN JULIEN SEH 87 0:30:39 06:09 9.74
318 55 MCGIRR CATHERINE V2F 14 0:30:40 06:10 9.74
319 1812 DESSE MARION JEUF 23 0:30:42 06:10 9.73
320 1242 HOUCHARD JUSTINE SEF 50 0:30:45 06:11 9.71
321 1095 HERMANN CHRISTELLE SEF 51 0:30:46 06:11 9.71
322 1920 ROSSIGNON MARIE V1F 30 0:30:47 06:11 9.70
323 1110 LOZZI MANDY SEF 52 0:30:47 06:11 9.70
324 1068 JORIS CATHERINE V2F 15 0:30:49 06:11 9.69
325 1173 KOBS CHRISTOPHE V1H 41 0:30:50 06:12 9.69
326 1811 PERE CELINE XXX   0:30:53 06:12 9.67
327 1875 MEULENYSER MANUEL V2H 24 0:31:02 06:14 9.62
328 1943 BOUSSARD ANTOINE SEH 88 0:31:02 06:14 9.62
329 1882 DRIES CLAUDINE V2F 16 0:31:02 06:14 9.62
330 2254 SAUSSU EMIE JEUF 24 0:31:05 06:15 9.61
331 2253 SAUSSU CHRISTOPHE V1H 42 0:31:07 06:15 9.60
332 81 DASNOY PRISCILLIA SEF 53 0:31:09 06:15 9.59
333 1904 BOUCHARD CAROLINE V2F 17 0:31:09 06:15 9.59
334 1059 LAHIER CLAUDINE V2F 18 0:31:12 06:16 9.57
335 1828 SIMON PASCALE V3F 1 0:31:16 06:17 9.55
336 1855 MARTENS ISABELLE V2F 19 0:31:23 06:18 9.52
337 1886 LEFEVRE LOIC SEH 89 0:31:25 06:19 9.51
338 1624 KERGER JACQUES V2H 25 0:31:26 06:19 9.50
339 1967 NEUBERG ELODIE SEF 54 0:31:27 06:19 9.50
340 1119 DEHEZ CATHY V1F 31 0:31:37 06:21 9.45
341 1847 BODEUX CATHY V1F 32 0:31:52 06:24 9.37
342 1856 SIMONET DELPHINE V1F 33 0:31:56 06:25 9.35
343 1826 JOURDAN GUILLENIWE SEF 55 0:32:04 06:27 9.31
344 79 GARDIEN MARTINE V2F 20 0:32:14 06:29 9.27
345 1965 REUSCH MICHELINE V2F 21 0:32:14 06:29 9.27
346 2044 DAMS LORENE SEF 56 0:32:19 06:30 9.24
347 60 LOUIS SABRINA SEF 57 0:32:22 06:30 9.23
348 1097 NICOLAS MARIE-JEANNE V2F 22 0:32:22 06:30 9.23
349 1122 PIERCON SANDRA SEF 58 0:32:22 06:30 9.23
350 1789 COLLIN ERIKA V1F 34 0:32:23 06:30 9.22
351 73 LIBOIS FABIENNE V1F 35 0:32:37 06:33 9.16
352 1801 CHRETIEN GAELLE SEF 59 0:32:49 06:36 9.10
353 2235 DUBOIS FLORETTE SEF 60 0:32:51 06:36 9.09
354 1894 MOOCK CHARLOTTE SEF 61 0:33:00 06:38 9.05
355 1111 SIMAR EVELYNE SEF 62 0:33:08 06:39 9.01
356 1884 ARNOULD DOMINIQUE V1F 36 0:33:21 06:42 8.96
357 1900 ROEL XAVIER V1H 43 0:33:22 06:42 8.95
358 1898 NOEL CAMILLE JEUH 36 0:33:22 06:42 8.95
359 592 ARNOULD FANNY V1F 37 0:33:22 06:42 8.95
360 113 LEJEUNE FLORIANE SEF 63 0:33:31 06:44 8.91
361 1842 DARDAR LAURA SEF 64 0:33:35 06:45 8.89
362 2063 GONRY ELODIE SEF 65 0:33:44 06:47 8.85
363 1941 HUMBLET CHARLOTTE SEF 66 0:34:01 06:50 8.78
364 1052 RAMSPACHER MELANIE V1F 38 0:34:04 06:51 8.77
365 1055 DELVIESMAISON STEFANIE V1F 39 0:34:12 06:52 8.73
366 1287 JACQUES SABINE V2F 23 0:34:14 06:53 8.72
367 1880 BOUVY MALLORY SEF 67 0:34:15 06:53 8.72
368 1822 ROISEUX LILOU JEUF 25 0:34:15 06:53 8.72
369 1716 SCHMITT VINCE JEUH 37 0:34:23 06:54 8.69
370 1859 SCHMITT MICHEL V1H 44 0:34:27 06:55 8.67
371 1974 HOURAND SEVERINE V1F 40 0:34:38 06:57 8.62
372 2248 RENOY BERNADETTE V2F 24 0:34:42 06:58 8.61
373 1138 DUMONT MAUREEN SEF 68 0:34:49 07:00 8.58
374 1309 DE DECKER ARLETTE V3F 2 0:34:49 07:00 8.58
375 1545 DEMOULIN SIMON V1H 45 0:34:52 07:00 8.57
376 1042 WELVAERT JULES V3H 13 0:34:54 07:01 8.56
377 1544 POLO CORALIE SEF 69 0:34:56 07:01 8.55
378 1878 THALLOT NOEMIE SEF 70 0:35:14 07:05 8.48
379 1816 CLARENNE MARIELLE V2F 25 0:35:15 07:05 8.47
380 1955 LEGROS ELYNE JEUF 26 0:35:20 07:06 8.45
381 2252 KARRE GAETAN V1H 46 0:35:37 07:09 8.39
382 1035 LAMOTTE ELODIE SEF 71 0:35:44 07:11 8.36
383 1949 HARTMANN ELODIE SEF 72 0:35:46 07:11 8.35
384 1950 KUNSCH AUDREY SEF 73 0:35:51 07:12 8.33
385 1742 THONUS AUDREY V1F 41 0:36:20 07:18 8.22
386 1250 RAMSPACHER MARIE ANNE V3F 3 0:36:23 07:19 8.21
387 1668 LEYDER STÉPHANIE SEF 74 0:36:26 07:19 8.20
388 2223 THIELTGEN KELLY SEF 75 0:36:30 07:20 8.18
389 1857 VERMOESEN MARC SEH 90 0:36:31 07:20 8.18
390 1037 FRANTZEN AURÉLIE SEF 76 0:36:36 07:21 8.16
391 2204 DUPONT DELPHINE SEF 77 0:36:37 07:21 8.16
392 1707 AUTHELET MARIE SEF 78 0:36:38 07:22 8.15
393 1706 DASNOIS NATHALIE SEF 79 0:36:38 07:22 8.15
394 1141 LECLEF THIMEA JEUF 27 0:36:40 07:22 8.15
395 1140 DAHIN MAELE V1F 42 0:36:41 07:22 8.14
396 58 BAAR PIERRE V3H 14 0:37:34 07:33 7.95
397 75 LIBOIS MARTIN JEUH 38 0:37:50 07:36 7.89
398 1680 XXX XXX   0:37:50 07:36 7.89
399 933 DETHISSE SOLENE SEF 80 0:37:52 07:36 7.89
400 1130 PEZZUTO UGO JEUH 39 0:37:54 07:37 7.88
401 1821 BARTHELEMY CORNELIA JEUF 28 0:38:09 07:40 7.83
402 2070 MAAS GWENAELLE SEF 81 0:38:09 07:40 7.83
403 1927 BOUVY FAUSTINE SEF 82 0:38:26 07:43 7.77
404 1926 ANDREUX CELINE SEF 83 0:38:28 07:44 7.76
405 1018 LICHTFUS EMILIE SEF 84 0:38:41 07:46 7.72
406 1840 LICHTEUS MARIE SEF 85 0:38:42 07:46 7.72
407 144 FINEUSE SÉBASTIEN V1H 47 0:38:54 07:49 7.68
408 110 ERPELDING AURORE SEF 86 0:39:17 07:54 7.60
409 109 SIMON MAXIME SEH 91 0:39:19 07:54 7.60
410 145 DAUTUN NATACHA SEF 87 0:39:51 08:00 7.49
411 1273 PIRSON AMANDINE SEF 88 0:39:52 08:01 7.49
412 1925 QUOIRIN LOIC SEH 92 0:41:09 08:16 7.26
413 1736 XXX XXX   1:40:01 20:06 2.99